CZ-4C R/B (43473 NORAD) Tracking and Keplerian Element Data

This shows tracking and keplerian element data for the satellite.

Feedback or suggestion? Click here.




ElementValue
Catalog43473
NameCZ-4C R/B
Epoch Orbit3
Epoch Day164.5458063
Epoch Year2018
RAAN208.971
Inclination27.0415
Eccentricity0.9664184
Argument of Perigee172.5297
Mean Anonmoly112.7279
Mean Motion0.09844131
Decay Rate4.33E-05
L11 43473U 18045D 18164.54580630 .00004330 00000-0 00000+0 0 9999
L22 43473 27.0415 208.9710 9664184 172.5297 112.7279 0.09844131 32

Live tracking and technical data element details for CZ-4C R/B (NORAD 43473). CZ-4C R/B can be tracked NOW for your location showing map with azimuth and elevation plus other details from your city location.

Track the satellite on the map from your city or location and see movement details for azimuth, elevation, latitude, longitude, range, height, and movement on the map or in text.







IsCatalogInMostPopularTable: catalog: 43473, numindb: 51
Update: records affected: 1



GetName: 43473 CZ-4C R/B

Hit Count: updated at: Sat, 17 Nov 2018 04:27:56 GMT